Data No, UTC Date,UTC Time,Latitude,Longitude,Course(deg),Temp(degC),Sal(psu)
562,2021/11/1,9:21,42-36.94N,141-37.06E,211,14.377,33.1003
563,2021/11/1,9:22,42-36.69N,141-36.89E,202,14.427,33.0645
564,2021/11/1,9:23,42-36.42N,141-36.91E,170,14.412,33.1285
565,2021/11/1,9:24,42-36.20N,141-37.13E,139,14.369,33.1672
566,2021/11/1,9:25,42-36.00N,141-37.41E,133,14.264,33.2244
567,2021/11/1,9:26,42-35.81N,141-37.71E,130,14.28,33.2603
568,2021/11/1,9:27,42-35.60N,141-38.03E,131,14.155,33.2275
569,2021/11/1,9:28,42-35.39N,141-38.34E,132,14.201,33.1379
570,2021/11/1,9:29,42-35.18N,141-38.66E,133,14.233,32.9815
571,2021/11/1,9:30,42-34.95N,141-38.98E,133,14.247,33.0099
572,2021/11/1,9:31,42-34.73N,141-39.29E,134,14.241,33.0269
573,2021/11/1,9:32,42-34.50N,141-39.61E,134,14.239,33.0387
574,2021/11/1,9:33,42-34.27N,141-39.93E,134,14.253,33.0659
575,2021/11/1,9:34,42-34.06N,141-40.21E,134,14.259,33.1136
576,2021/11/1,9:35,42-33.83N,141-40.55E,133,14.261,33.1825
577,2021/11/1,9:36,42-33.57N,141-40.90E,134,14.342,33.2059
578,2021/11/1,9:37,42-33.31N,141-41.26E,134,14.406,33.2605
579,2021/11/1,9:38,42-33.07N,141-41.59E,134,14.483,33.337
580,2021/11/1,9:39,42-32.83N,141-41.93E,133,14.494,33.3931
581,2021/11/1,9:40,42-32.62N,141-42.24E,134,14.509,33.4309
582,2021/11/1,9:41,42-32.37N,141-42.58E,133,14.552,33.4483
583,2021/11/1,9:42,42-32.08N,141-42.98E,134,14.609,33.474
584,2021/11/1,9:43,42-31.83N,141-43.34E,133,14.572,33.5303
585,2021/11/1,9:44,42-31.61N,141-43.65E,134,14.549,33.5881
586,2021/11/1,9:45,42-31.35N,141-44.01E,134,14.542,33.6208
587,2021/11/1,9:46,42-31.09N,141-44.38E,133,14.527,33.6282
588,2021/11/1,9:47,42-30.82N,141-44.75E,133,14.504,33.6393
589,2021/11/1,9:48,42-30.57N,141-45.13E,133,14.522,33.6432
590,2021/11/1,9:49,42-30.30N,141-45.51E,133,14.551,33.6485
591,2021/11/1,9:50,42-30.03N,141-45.90E,133,14.57,33.6482
592,2021/11/1,9:51,42-29.76N,141-46.27E,133,14.56,33.6415
593,2021/11/1,9:52,42-29.48N,141-46.66E,134,14.541,33.6364
594,2021/11/1,9:53,42-29.22N,141-47.04E,133,14.78,33.628
595,2021/11/1,9:54,42-28.94N,141-47.42E,134,14.969,33.627
596,2021/11/1,9:55,42-28.66N,141-47.81E,134,14.978,33.6461
597,2021/11/1,9:56,42-28.39N,141-48.19E,134,14.884,33.6459
598,2021/11/1,9:57,42-28.11N,141-48.57E,134,14.833,33.6419
599,2021/11/1,9:58,42-27.84N,141-48.94E,134,14.803,33.6293
600,2021/11/1,9:59,42-27.56N,141-49.32E,134,14.716,33.6292
601,2021/11/1,10:00,42-27.28N,141-49.71E,134,14.653,33.6206
602,2021/11/1,10:01,42-27.00N,141-50.08E,135,14.583,33.6164
603,2021/11/1,10:02,42-26.72N,141-50.45E,135,14.567,33.6264
604,2021/11/1,10:03,42-26.45N,141-50.82E,135,14.575,33.6071
605,2021/11/1,10:04,42-26.17N,141-51.19E,134,14.495,33.6094
606,2021/11/1,10:05,42-25.89N,141-51.56E,135,14.446,33.6428
607,2021/11/1,10:06,42-25.62N,141-51.92E,134,14.477,33.6798
608,2021/11/1,10:07,42-25.35N,141-52.30E,134,14.566,33.6823
609,2021/11/1,10:08,42-25.08N,141-52.66E,134,14.522,33.6849
610,2021/11/1,10:09,42-24.81N,141-53.03E,134,14.52,33.6807
611,2021/11/1,10:10,42-24.54N,141-53.41E,133,14.522,33.6613
612,2021/11/1,10:11,42-24.28N,141-53.77E,134,14.571,33.6599
613,2021/11/1,10:12,42-24.01N,141-54.15E,133,14.662,33.6482
614,2021/11/1,10:13,42-23.75N,141-54.52E,133,14.831,33.6352
615,2021/11/1,10:14,42-23.48N,141-54.90E,133,14.856,33.6215
616,2021/11/1,10:15,42-23.21N,141-55.28E,133,14.853,33.6099
617,2021/11/1,10:16,42-22.95N,141-55.65E,133,14.903,33.6045
618,2021/11/1,10:17,42-22.68N,141-56.03E,133,14.989,33.6062
619,2021/11/1,10:18,42-22.42N,141-56.40E,133,14.978,33.6134
620,2021/11/1,10:19,42-22.15N,141-56.77E,133,15.015,33.6246
621,2021/11/1,10:20,42-21.88N,141-57.15E,134,15.05,33.634
622,2021/11/1,10:21,42-21.62N,141-57.51E,134,15.011,33.6446
623,2021/11/1,10:22,42-21.35N,141-57.88E,133,14.961,33.6424
624,2021/11/1,10:23,42-21.09N,141-58.24E,134,14.929,33.6236
625,2021/11/1,10:24,42-20.82N,141-58.61E,134,14.945,33.6028
626,2021/11/1,10:25,42-20.55N,141-58.98E,134,14.929,33.5989
627,2021/11/1,10:26,42-20.29N,141-59.34E,134,14.871,33.5998
628,2021/11/1,10:27,42-20.03N,141-59.71E,134,14.905,33.5892
629,2021/11/1,10:28,42-19.76N,142-00.07E,134,14.925,33.5868
630,2021/11/1,10:29,42-19.51N,142-00.45E,129,14.96,33.5904
631,2021/11/1,10:30,42-19.30N,142-00.87E,121,14.983,33.5929
632,2021/11/1,10:31,42-19.12N,142-01.30E,119,14.931,33.6111
633,2021/11/1,10:32,42-18.93N,142-01.74E,118,14.971,33.6053
634,2021/11/1,10:33,42-18.75N,142-02.20E,118,15.149,33.6092
635,2021/11/1,10:34,42-18.57N,142-02.63E,118,15.19,33.6549
636,2021/11/1,10:35,42-18.39N,142-03.08E,119,15.177,33.7098
637,2021/11/1,10:36,42-18.21N,142-03.52E,119,15.094,33.7237
638,2021/11/1,10:37,42-18.02N,142-03.96E,119,14.932,33.7161
639,2021/11/1,10:38,42-17.83N,142-04.41E,119,15.054,33.6838
640,2021/11/1,10:39,42-17.65N,142-04.85E,118,15.068,33.6686
641,2021/11/1,10:40,42-17.47N,142-05.30E,118,15.059,33.6877
642,2021/11/1,10:41,42-17.29N,142-05.74E,119,15.039,33.6881
643,2021/11/1,10:42,42-17.11N,142-06.18E,118,14.985,33.691
644,2021/11/1,10:43,42-16.92N,142-06.63E,119,14.842,33.68
645,2021/11/1,10:44,42-16.74N,142-07.06E,119,14.824,33.6556
646,2021/11/1,10:45,42-16.56N,142-07.50E,119,14.836,33.6263
647,2021/11/1,10:46,42-16.37N,142-07.93E,119,14.823,33.6063
648,2021/11/1,10:47,42-16.18N,142-08.37E,120,14.774,33.5946
649,2021/11/1,10:48,42-16.00N,142-08.81E,119,14.757,33.5859
650,2021/11/1,10:49,42-15.82N,142-09.24E,119,14.773,33.5764
651,2021/11/1,10:50,42-15.63N,142-09.67E,119,14.819,33.5751
652,2021/11/1,10:51,42-15.45N,142-10.10E,119,14.734,33.578
653,2021/11/1,10:52,42-15.27N,142-10.53E,119,14.558,33.5803
654,2021/11/1,10:53,42-15.08N,142-10.97E,119,14.568,33.5482
655,2021/11/1,10:54,42-14.91N,142-11.39E,119,14.613,33.5289
656,2021/11/1,10:55,42-14.73N,142-11.83E,118,14.981,33.5599
657,2021/11/1,10:56,42-14.55N,142-12.26E,119,15.089,33.6255
658,2021/11/1,10:57,42-14.37N,142-12.68E,119,15.153,33.6903
659,2021/11/1,10:58,42-14.18N,142-13.12E,119,15.184,33.7281
660,2021/11/1,10:59,42-14.01N,142-13.54E,119,15.182,33.7475
661,2021/11/1,11:00,42-13.83N,142-13.98E,119,15.185,33.7618
662,2021/11/1,11:01,42-13.65N,142-14.41E,119,15.188,33.7705
663,2021/11/1,11:02,42-13.47N,142-14.83E,119,15.196,33.778
664,2021/11/1,11:03,42-13.28N,142-15.27E,119,15.208,33.7841
665,2021/11/1,11:04,42-13.11N,142-15.68E,119,15.221,33.7877
666,2021/11/1,11:05,42-12.93N,142-16.11E,119,15.275,33.7955
667,2021/11/1,11:06,42-12.75N,142-16.54E,119,15.418,33.7977
668,2021/11/1,11:07,42-12.57N,142-16.96E,119,15.608,33.8027
669,2021/11/1,11:08,42-12.39N,142-17.39E,119,15.704,33.7993
670,2021/11/1,11:09,42-12.21N,142-17.84E,119,15.749,33.7918
671,2021/11/1,11:10,42-12.04N,142-18.23E,119,15.826,33.7903
672,2021/11/1,11:11,42-11.86N,142-18.66E,119,15.899,33.793
673,2021/11/1,11:12,42-11.69N,142-19.08E,119,15.921,33.7906
674,2021/11/1,11:13,42-11.51N,142-19.51E,119,15.923,33.7917
675,2021/11/1,11:14,42-11.34N,142-19.91E,119,15.911,33.7908
676,2021/11/1,11:15,42-11.16N,142-20.33E,119,15.901,33.7894
677,2021/11/1,11:16,42-10.99N,142-20.76E,119,15.892,33.7864
678,2021/11/1,11:17,42-10.81N,142-21.18E,119,15.872,33.7923
679,2021/11/1,11:18,42-10.61N,142-21.67E,119,15.858,33.7906
680,2021/11/1,11:19,42-10.46N,142-22.02E,119,15.853,33.7925
681,2021/11/1,11:20,42-10.29N,142-22.44E,119,15.859,33.7917
682,2021/11/1,11:21,42-10.09N,142-22.93E,119,15.894,33.7917
683,2021/11/1,11:22,42-09.94N,142-23.29E,119,15.919,33.7908
684,2021/11/1,11:23,42-09.76N,142-23.71E,119,15.913,33.7895
685,2021/11/1,11:24,42-09.59N,142-24.13E,119,15.884,33.7928
686,2021/11/1,11:25,42-09.41N,142-24.55E,119,15.902,33.7945
687,2021/11/1,11:26,42-09.24N,142-24.98E,119,15.898,33.7923
688,2021/11/1,11:27,42-09.06N,142-25.39E,119,15.896,33.7899
689,2021/11/1,11:28,42-08.89N,142-25.82E,118,15.883,33.7935
690,2021/11/1,11:29,42-08.72N,142-26.24E,118,15.901,33.7926
691,2021/11/1,11:30,42-08.54N,142-26.66E,119,15.914,33.7932
692,2021/11/1,11:31,42-08.37N,142-27.09E,119,15.91,33.7931
693,2021/11/1,11:32,42-08.20N,142-27.51E,118,15.915,33.7923
694,2021/11/1,11:33,42-08.02N,142-27.93E,119,15.875,33.7938
695,2021/11/1,11:34,42-07.85N,142-28.34E,119,15.838,33.7976
696,2021/11/1,11:35,42-07.67N,142-28.76E,119,15.807,33.7939
697,2021/11/1,11:36,42-07.50N,142-29.19E,119,15.776,33.797
698,2021/11/1,11:37,42-07.32N,142-29.60E,119,15.727,33.7956
699,2021/11/1,11:38,42-07.15N,142-30.03E,118,15.673,33.7936
700,2021/11/1,11:39,42-06.97N,142-30.45E,118,15.624,33.7978
701,2021/11/1,11:40,42-06.80N,142-30.87E,119,15.616,33.795
702,2021/11/1,11:41,42-06.62N,142-31.30E,119,15.603,33.793
703,2021/11/1,11:42,42-06.45N,142-31.73E,118,15.566,33.7924
704,2021/11/1,11:43,42-06.28N,142-32.15E,119,15.51,33.7956
705,2021/11/1,11:44,42-06.11N,142-32.56E,119,15.451,33.7896
706,2021/11/1,11:45,42-05.93N,142-32.98E,119,15.406,33.7903
707,2021/11/1,11:46,42-05.75N,142-33.41E,118,15.363,33.7865
708,2021/11/1,11:47,42-05.58N,142-33.83E,118,15.352,33.7876
709,2021/11/1,11:48,42-05.40N,142-34.26E,118,15.351,33.7837
710,2021/11/1,11:49,42-05.24N,142-34.68E,118,15.36,33.7812
711,2021/11/1,11:50,42-05.06N,142-35.11E,118,15.381,33.7857
712,2021/11/1,11:51,42-04.88N,142-35.54E,119,15.389,33.7861
713,2021/11/1,11:52,42-04.71N,142-35.96E,119,15.429,33.7866
714,2021/11/1,11:53,42-04.53N,142-36.40E,118,15.444,33.7824
715,2021/11/1,11:54,42-04.35N,142-36.81E,119,15.53,33.7825
716,2021/11/1,11:55,42-04.17N,142-37.24E,119,15.63,33.7897
717,2021/11/1,11:56,42-03.99N,142-37.67E,119,15.725,33.7946
718,2021/11/1,11:57,42-03.82N,142-38.09E,119,15.807,33.7941
719,2021/11/1,11:58,42-03.64N,142-38.52E,119,15.848,33.799
720,2021/11/1,11:59,42-03.48N,142-38.93E,118,15.852,33.8009
721,2021/11/1,12:00,42-03.30N,142-39.36E,118,15.86,33.8041
722,2021/11/1,12:01,42-03.13N,142-39.79E,118,15.885,33.8087
723,2021/11/1,12:02,42-02.96N,142-40.20E,118,15.909,33.8052
724,2021/11/1,12:03,42-02.79N,142-40.62E,118,15.956,33.8054
725,2021/11/1,12:04,42-02.62N,142-41.04E,118,15.98,33.8049
726,2021/11/1,12:05,42-02.44N,142-41.46E,118,16,33.8093
727,2021/11/1,12:06,42-02.27N,142-41.89E,118,16.019,33.8074
728,2021/11/1,12:07,42-02.10N,142-42.31E,118,16.016,33.8076
729,2021/11/1,12:08,42-01.93N,142-42.73E,118,16.03,33.8038
730,2021/11/1,12:09,42-01.75N,142-43.15E,118,16.058,33.8069
731,2021/11/1,12:10,42-01.57N,142-43.57E,118,16.079,33.8035
732,2021/11/1,12:11,42-01.40N,142-44.00E,118,16.089,33.8
733,2021/11/1,12:12,42-01.23N,142-44.41E,119,16.096,33.8017
734,2021/11/1,12:13,42-01.05N,142-44.84E,119,16.085,33.8027
735,2021/11/1,12:14,42-00.87N,142-45.27E,119,16.008,33.7992
736,2021/11/1,12:15,42-00.70N,142-45.68E,118,15.969,33.8003
737,2021/11/1,12:16,42-00.52N,142-46.11E,118,15.978,33.8032
738,2021/11/1,12:17,42-00.35N,142-46.53E,118,15.959,33.8046
739,2021/11/1,12:18,42-00.17N,142-46.95E,119,15.954,33.7999
740,2021/11/1,12:19,41-59.99N,142-47.38E,119,15.941,33.7984
741,2021/11/1,12:20,41-59.82N,142-47.80E,118,15.907,33.7995
742,2021/11/1,12:21,41-59.64N,142-48.23E,119,15.9,33.8006
743,2021/11/1,12:22,41-59.47N,142-48.65E,119,15.898,33.8053
744,2021/11/1,12:23,41-59.29N,142-49.08E,118,15.894,33.8019
745,2021/11/1,12:24,41-59.11N,142-49.51E,118,15.903,33.8055
746,2021/11/1,12:25,41-58.93N,142-49.94E,118,15.889,33.8007
747,2021/11/1,12:26,41-58.75N,142-50.37E,119,15.854,33.8026
748,2021/11/1,12:27,41-58.57N,142-50.80E,118,15.855,33.8049
749,2021/11/1,12:28,41-58.40N,142-51.23E,118,15.875,33.8038
750,2021/11/1,12:29,41-58.22N,142-51.66E,118,15.876,33.8022
751,2021/11/1,12:30,41-58.04N,142-52.08E,120,15.881,33.8011
752,2021/11/1,12:31,41-57.84N,142-52.51E,122,15.922,33.8001
753,2021/11/1,12:32,41-57.65N,142-52.91E,123,15.945,33.7972
754,2021/11/1,12:33,41-57.44N,142-53.31E,123,15.979,33.799
755,2021/11/1,12:34,41-57.24N,142-53.72E,123,16.017,33.8007
756,2021/11/1,12:35,41-57.04N,142-54.12E,122,16.059,33.801
757,2021/11/1,12:36,41-56.85N,142-54.55E,119,16.085,33.7993
758,2021/11/1,12:37,41-56.68N,142-54.98E,118,16.016,33.8002
759,2021/11/1,12:38,41-56.50N,142-55.41E,118,15.965,33.8049
760,2021/11/1,12:39,41-56.33N,142-55.85E,117,15.949,33.8081
761,2021/11/1,12:40,41-56.16N,142-56.27E,118,15.908,33.8035
762,2021/11/1,12:41,41-55.98N,142-56.71E,118,15.749,33.8017
763,2021/11/1,12:42,41-55.80N,142-57.14E,117,15.587,33.8078
764,2021/11/1,12:43,41-55.63N,142-57.57E,118,15.399,33.8139
765,2021/11/1,12:44,41-55.44N,142-58.01E,119,15.219,33.8167
766,2021/11/1,12:45,41-55.27N,142-58.43E,118,15.138,33.8112
767,2021/11/1,12:46,41-55.09N,142-58.87E,118,15.092,33.8069
768,2021/11/1,12:47,41-54.92N,142-59.29E,118,15.102,33.7879
769,2021/11/1,12:48,41-54.75N,142-59.72E,117,15.036,33.7777
770,2021/11/1,12:49,41-54.58N,143-00.16E,116,14.912,33.756
771,2021/11/1,12:50,41-54.42N,143-00.59E,116,14.973,33.7181
772,2021/11/1,12:51,41-54.26N,143-01.04E,116,15.052,33.6864
773,2021/11/1,12:52,41-54.10N,143-01.46E,116,14.756,33.6946
774,2021/11/1,12:53,41-53.95N,143-01.90E,115,14.584,33.6806
775,2021/11/1,12:54,41-53.79N,143-02.35E,115,14.751,33.6296
776,2021/11/1,12:55,41-53.63N,143-02.77E,115,14.756,33.6186
777,2021/11/1,12:56,41-53.47N,143-03.22E,115,14.595,33.6314
778,2021/11/1,12:57,41-53.32N,143-03.64E,115,14.476,33.6031
779,2021/11/1,12:58,41-53.16N,143-04.08E,115,14.368,33.5732
780,2021/11/1,12:59,41-53.00N,143-04.52E,115,14.239,33.5425
781,2021/11/1,13:00,41-52.85N,143-04.95E,115,14.191,33.5135
782,2021/11/1,13:01,41-52.69N,143-05.39E,115,14.281,33.4827
783,2021/11/1,13:02,41-52.53N,143-05.82E,116,14.264,33.4734
784,2021/11/1,13:03,41-52.37N,143-06.26E,116,14.227,33.4701
785,2021/11/1,13:04,41-52.21N,143-06.70E,115,14.159,33.4612
786,2021/11/1,13:05,41-52.05N,143-07.13E,115,13.944,33.4494
787,2021/11/1,13:06,41-51.90N,143-07.57E,115,13.921,33.4218
788,2021/11/1,13:07,41-51.75N,143-08.01E,114,13.764,33.3827
789,2021/11/1,13:08,41-51.59N,143-08.46E,114,13.737,33.3618
790,2021/11/1,13:09,41-51.44N,143-08.91E,114,13.466,33.3328
791,2021/11/1,13:10,41-51.29N,143-09.35E,114,13.436,33.3079
792,2021/11/1,13:11,41-51.14N,143-09.79E,114,13.38,33.2904
793,2021/11/1,13:12,41-50.99N,143-10.24E,113,13.06,33.2895
794,2021/11/1,13:13,41-50.86N,143-10.68E,111,12.74,33.2587
795,2021/11/1,13:14,41-50.73N,143-11.14E,108,12.598,33.1742
796,2021/11/1,13:15,41-50.63N,143-11.58E,106,12.506,33.099
797,2021/11/1,13:16,41-50.53N,143-12.03E,105,12.445,33.0581
798,2021/11/1,13:17,41-50.44N,143-12.50E,104,12.419,33.0562
799,2021/11/1,13:18,41-50.36N,143-12.95E,102,12.419,33.0521
800,2021/11/1,13:19,41-50.29N,143-13.42E,99,12.41,33.0387
801,2021/11/1,13:20,41-50.26N,143-13.88E,94,12.433,33.0276
802,2021/11/1,13:21,41-50.24N,143-14.34E,92,12.441,33.0225
803,2021/11/1,13:22,41-50.24N,143-14.81E,90,12.408,33.0165
804,2021/11/1,13:23,41-50.24N,143-15.26E,89,12.392,33.0127
805,2021/11/1,13:24,41-50.25N,143-15.73E,86,12.42,33.0163
806,2021/11/1,13:25,41-50.29N,143-16.18E,83,12.521,33.0202
807,2021/11/1,13:26,41-50.34N,143-16.64E,80,12.54,33.0329
808,2021/11/1,13:27,41-50.42N,143-17.09E,76,12.53,33.0274
809,2021/11/1,13:28,41-50.50N,143-17.54E,74,12.557,33.0212
810,2021/11/1,13:29,41-50.60N,143-17.99E,72,12.559,33.007
811,2021/11/1,13:30,41-50.71N,143-18.42E,69,12.556,32.9981
812,2021/11/1,13:31,41-50.84N,143-18.86E,67,12.651,32.9941
813,2021/11/1,13:32,41-50.99N,143-19.29E,65,12.775,33.0047
814,2021/11/1,13:33,41-51.14N,143-19.71E,64,12.859,33.0296
815,2021/11/1,13:34,41-51.31N,143-20.12E,54,12.886,33.0438
816,2021/11/1,13:35,41-51.61N,143-20.42E,32,12.963,33.0533
817,2021/11/1,13:36,41-51.91N,143-20.65E,29,12.76,33.058
818,2021/11/1,13:37,41-52.18N,143-20.86E,30,12.807,33.0895
819,2021/11/1,13:38,41-52.46N,143-21.09E,31,12.927,33.0793
820,2021/11/1,13:39,41-52.76N,143-21.32E,29,13.055,33.0812
821,2021/11/1,13:40,41-53.06N,143-21.55E,29,12.994,33.1157
822,2021/11/1,13:41,41-53.35N,143-21.78E,30,13.158,33.125
823,2021/11/1,13:42,41-53.65N,143-22.02E,30,13.324,33.1306
824,2021/11/1,13:43,41-53.95N,143-22.26E,32,13.116,33.1866
825,2021/11/1,13:44,41-54.25N,143-22.52E,32,13.01,33.1928
826,2021/11/1,13:45,41-54.56N,143-22.76E,31,13.071,33.1745
827,2021/11/1,13:46,41-54.85N,143-23.00E,31,13.177,33.1626
828,2021/11/1,13:47,41-55.14N,143-23.25E,31,13.213,33.1822
829,2021/11/1,13:48,41-55.44N,143-23.49E,30,13.235,33.1992
830,2021/11/1,13:49,41-55.73N,143-23.73E,30,13.151,33.2147
831,2021/11/1,13:50,41-56.03N,143-23.96E,30,13.204,33.2146
832,2021/11/1,13:51,41-56.36N,143-24.24E,30,13.295,33.2108
833,2021/11/1,13:52,41-56.67N,143-24.49E,31,13.452,33.2257
834,2021/11/1,13:53,41-56.96N,143-24.73E,31,13.504,33.2491
835,2021/11/1,13:54,41-57.24N,143-24.95E,31,13.635,33.2794
836,2021/11/1,13:55,41-57.52N,143-25.18E,31,13.53,33.2996
837,2021/11/1,13:56,41-57.83N,143-25.42E,30,13.175,33.3164
838,2021/11/1,13:57,41-58.14N,143-25.67E,30,12.768,33.2906
839,2021/11/1,13:58,41-58.48N,143-25.95E,31,12.646,33.2216
840,2021/11/1,13:59,41-58.78N,143-26.19E,30,12.666,33.1629
841,2021/11/1,14:00,41-59.08N,143-26.43E,31,12.689,33.1256
842,2021/11/1,14:01,41-59.38N,143-26.67E,30,12.708,33.0652
843,2021/11/1,14:02,41-59.69N,143-26.92E,30,12.706,32.9896
844,2021/11/1,14:03,41-59.99N,143-27.15E,30,12.75,32.8769
845,2021/11/1,14:04,42-00.25N,143-27.36E,30,12.725,32.7856
846,2021/11/1,14:05,42-00.56N,143-27.60E,30,12.726,32.756
847,2021/11/1,14:06,42-00.86N,143-27.84E,30,12.677,32.7551
848,2021/11/1,14:07,42-01.17N,143-28.08E,30,12.629,32.7879
849,2021/11/1,14:08,42-01.50N,143-28.36E,31,12.569,32.7929
850,2021/11/1,14:09,42-01.80N,143-28.60E,31,12.441,32.8075
851,2021/11/1,14:10,42-02.12N,143-28.85E,29,12.059,32.8406
852,2021/11/1,14:11,42-02.42N,143-29.07E,29,11.782,32.8686
853,2021/11/1,14:12,42-02.73N,143-29.32E,30,11.676,32.8481
854,2021/11/1,14:13,42-03.03N,143-29.56E,31,11.557,32.8089
855,2021/11/1,14:14,42-03.29N,143-29.76E,30,11.466,32.7933
856,2021/11/1,14:15,42-03.60N,143-30.01E,30,11.426,32.7914
857,2021/11/1,14:16,42-03.93N,143-30.26E,30,11.513,32.8206
858,2021/11/1,14:17,42-04.23N,143-30.49E,30,11.588,32.8403
859,2021/11/1,14:18,42-04.52N,143-30.73E,30,11.633,32.8524
860,2021/11/1,14:19,42-04.82N,143-30.97E,30,11.649,32.8516
861,2021/11/1,14:20,42-05.13N,143-31.21E,30,11.612,32.8535
862,2021/11/1,14:21,42-05.43N,143-31.44E,30,11.519,32.8556
863,2021/11/1,14:22,42-05.77N,143-31.71E,30,11.44,32.849
864,2021/11/1,14:23,42-06.03N,143-31.92E,30,11.518,32.856
865,2021/11/1,14:24,42-06.34N,143-32.16E,30,11.439,32.9213
866,2021/11/1,14:25,42-06.64N,143-32.40E,30,11.3,32.9785
867,2021/11/1,14:26,42-06.94N,143-32.64E,30,11.289,32.9956
868,2021/11/1,14:27,42-07.27N,143-32.90E,30,11.381,33.0027
869,2021/11/1,14:28,42-07.53N,143-33.11E,30,11.656,33.0054
870,2021/11/1,14:29,42-07.83N,143-33.34E,30,11.905,33.0234
871,2021/11/1,14:30,42-08.13N,143-33.59E,30,11.943,33.0844
872,2021/11/1,14:31,42-08.42N,143-33.82E,30,12.008,33.1139
873,2021/11/1,14:32,42-08.72N,143-34.06E,30,12.022,33.1244
874,2021/11/1,14:33,42-09.01N,143-34.29E,30,11.951,33.1277
875,2021/11/1,14:34,42-09.31N,143-34.52E,30,11.659,33.1306
876,2021/11/1,14:35,42-09.61N,143-34.77E,30,11.327,33.1034
877,2021/11/1,14:36,42-09.90N,143-35.00E,31,10.942,33.0454
878,2021/11/1,14:37,42-10.19N,143-35.24E,30,10.821,32.9701
879,2021/11/1,14:38,42-10.48N,143-35.47E,30,10.899,32.9041
880,2021/11/1,14:39,42-10.77N,143-35.70E,31,11.017,32.855
881,2021/11/1,14:40,42-11.10N,143-35.95E,30,11.125,32.8207
882,2021/11/1,14:41,42-11.38N,143-36.18E,30,11.314,32.8084
883,2021/11/1,14:42,42-11.68N,143-36.41E,30,11.327,32.7866
884,2021/11/1,14:43,42-11.97N,143-36.64E,30,11.446,32.763
885,2021/11/1,14:44,42-12.26N,143-36.87E,29,11.725,32.7511
886,2021/11/1,14:45,42-12.57N,143-37.10E,29,11.908,32.7314
887,2021/11/1,14:46,42-12.86N,143-37.33E,29,11.989,32.6963
888,2021/11/1,14:47,42-13.17N,143-37.57E,29,12.046,32.6709
889,2021/11/1,14:48,42-13.47N,143-37.80E,29,12.061,32.6502
890,2021/11/1,14:49,42-13.77N,143-38.03E,30,12.052,32.642
891,2021/11/1,14:50,42-14.07N,143-38.27E,29,12.048,32.6405
892,2021/11/1,14:51,42-14.37N,143-38.51E,30,12.055,32.6421
893,2021/11/1,14:52,42-14.67N,143-38.75E,30,12.073,32.6411
894,2021/11/1,14:53,42-14.97N,143-38.98E,30,12.067,32.6391
895,2021/11/1,14:54,42-15.27N,143-39.22E,30,12.03,32.6392
896,2021/11/1,14:55,42-15.57N,143-39.46E,30,12.012,32.6337
897,2021/11/1,14:56,42-15.87N,143-39.70E,30,12,32.6345
898,2021/11/1,14:57,42-16.17N,143-39.94E,30,11.951,32.6342
899,2021/11/1,14:58,42-16.46N,143-40.19E,31,11.778,32.6296
900,2021/11/1,14:59,42-16.75N,143-40.44E,32,11.739,32.6431
901,2021/11/1,15:00,42-17.05N,143-40.69E,32,11.894,32.6857
902,2021/11/1,15:01,42-17.34N,143-40.94E,31,12.136,32.8562
903,2021/11/1,15:02,42-17.64N,143-41.19E,31,12.289,32.9811
904,2021/11/1,15:03,42-17.93N,143-41.43E,32,12.324,33.0513
905,2021/11/1,15:04,42-18.22N,143-41.69E,32,12.31,33.1049
906,2021/11/1,15:05,42-18.52N,143-41.94E,31,12.328,33.1354
907,2021/11/1,15:06,42-18.81N,143-42.19E,31,12.347,33.151
908,2021/11/1,15:07,42-19.10N,143-42.43E,32,12.344,33.1518
909,2021/11/1,15:08,42-19.40N,143-42.68E,31,12.38,33.1598
910,2021/11/1,15:09,42-19.69N,143-42.93E,31,12.367,33.1678
911,2021/11/1,15:10,42-19.99N,143-43.18E,32,12.328,33.1683
912,2021/11/1,15:11,42-20.28N,143-43.43E,32,12.299,33.1779
913,2021/11/1,15:12,42-20.58N,143-43.68E,30,12.26,33.1744
914,2021/11/1,15:13,42-20.88N,143-43.91E,30,12.243,33.1816
915,2021/11/1,15:14,42-21.18N,143-44.16E,30,12.234,33.1707
916,2021/11/1,15:15,42-21.49N,143-44.41E,31,12.234,33.1683
917,2021/11/1,15:16,42-21.78N,143-44.65E,31,12.229,33.1683
918,2021/11/1,15:17,42-22.09N,143-44.90E,31,12.23,33.1671
919,2021/11/1,15:18,42-22.39N,143-45.15E,31,12.224,33.1659
920,2021/11/1,15:19,42-22.69N,143-45.40E,30,12.215,33.1675
921,2021/11/1,15:20,42-23.00N,143-45.64E,30,12.203,33.1651
922,2021/11/1,15:21,42-23.30N,143-45.88E,30,12.195,33.1625
923,2021/11/1,15:22,42-23.60N,143-46.13E,31,12.207,33.1631
924,2021/11/1,15:23,42-23.90N,143-46.37E,31,12.209,33.1555
925,2021/11/1,15:24,42-24.20N,143-46.62E,30,12.233,33.1557
926,2021/11/1,15:25,42-24.50N,143-46.86E,31,12.241,33.1464
927,2021/11/1,15:26,42-24.80N,143-47.10E,31,12.242,33.143
928,2021/11/1,15:27,42-25.10N,143-47.35E,31,12.248,33.1405
929,2021/11/1,15:28,42-25.40N,143-47.60E,30,12.243,33.1406
930,2021/11/1,15:29,42-25.70N,143-47.84E,30,12.237,33.1362
931,2021/11/1,15:30,42-26.01N,143-48.10E,31,12.239,33.1333
932,2021/11/1,15:31,42-26.31N,143-48.34E,31,12.235,33.1308
933,2021/11/1,15:32,42-26.61N,143-48.59E,31,12.238,33.1324
934,2021/11/1,15:33,42-26.91N,143-48.84E,31,12.241,33.1315
935,2021/11/1,15:34,42-27.21N,143-49.08E,30,12.247,33.1282
936,2021/11/1,15:35,42-27.51N,143-49.33E,31,12.252,33.1297
937,2021/11/1,15:36,42-27.81N,143-49.57E,30,12.263,33.127
938,2021/11/1,15:37,42-28.11N,143-49.82E,31,12.275,33.1284
939,2021/11/1,15:38,42-28.42N,143-50.08E,31,12.289,33.1283
940,2021/11/1,15:39,42-28.71N,143-50.32E,31,12.3,33.1314
941,2021/11/1,15:40,42-29.02N,143-50.57E,31,12.306,33.1327
942,2021/11/1,15:41,42-29.32N,143-50.82E,31,12.308,33.1303
943,2021/11/1,15:42,42-29.62N,143-51.08E,31,12.317,33.1321
944,2021/11/1,15:43,42-29.94N,143-51.33E,31,12.33,33.13
945,2021/11/1,15:44,42-30.24N,143-51.58E,31,12.365,33.1331
946,2021/11/1,15:45,42-30.55N,143-51.83E,31,12.385,33.138
947,2021/11/1,15:46,42-30.84N,143-52.08E,31,12.389,33.1496
948,2021/11/1,15:47,42-31.15N,143-52.33E,31,12.411,33.153
949,2021/11/1,15:48,42-31.45N,143-52.58E,31,12.396,33.1535
950,2021/11/1,15:49,42-31.75N,143-52.83E,31,12.395,33.1595
951,2021/11/1,15:50,42-32.05N,143-53.08E,31,12.39,33.1564
952,2021/11/1,15:51,42-32.35N,143-53.33E,32,12.368,33.1558
953,2021/11/1,15:52,42-32.65N,143-53.59E,32,12.339,33.1536
954,2021/11/1,15:53,42-32.95N,143-53.85E,31,12.342,33.1531
955,2021/11/1,15:54,42-33.24N,143-54.10E,31,12.342,33.1637
956,2021/11/1,15:55,42-33.55N,143-54.36E,32,12.323,33.1746
957,2021/11/1,15:56,42-33.84N,143-54.61E,32,12.325,33.1845